Flag for Norway Weather past 2 weeks in Sarpsborg, Norway

Now
75 °F

Broken clouds.


Feels Like: 78 °F
Forecast: 65 / 84 °F
Wind: 8 mph from Northeast

Location: Rygge

Current Time: Jul 24, 2014 at 9:24:55 PM

Latest Report: Jul 24, 2014 at 8:50 PM


Visibility: N/A

Pressure: 30.15 "Hg

Humidity: 54%

Dew point: 57 °F

Location of SarpsborgLocation

Historic Weather in Sarpsborg — Graph

°F

Sarpsborg temperature yesterday

Maximum temperature yesterday: 91 °F (at 5:20 PM)
Minimum temperature yesterday: 61 °F (at 4:50 AM)
Average temperature yesterday: 78 °F

Past Weeks' High & Low Weather Summary

 TemperatureHumidityPressure
High91 °F (Jul 23, 5:20 PM)100% (Jul 17, 2:20 AM)30.30 "Hg (Jul 17, 2:20 AM)
Low54 °F (Jul 19, 4:50 AM)26% (Jul 23, 5:50 PM)29.62 "Hg (Jul 13, 8:50 PM)
Average70 °F63%30.03 "Hg
* Reported Jul 9 7:20 PM — Jul 24 7:50 PM, Sarpsborg, Weather by CustomWeather, © 2014

Note: Actual official high and low records may vary slightly from our data, if they occured in-between our weather recording intervals... More about our weather records

Advertising

Sarpsborg weather history for previous 24 hours

 ConditionsComfort  
Time TempWeatherWind HumidityBarometerVisibility
7:50 PM
Jul 24
77 °FPassing clouds.13 mph47%30.18 "HgN/A
7:20 PM79 °FScattered clouds.10 mph51%30.18 "HgN/A
6:50 PM81 °FScattered clouds.13 mph45%30.15 "HgN/A
6:20 PM88 °FBroken clouds.3 mph33%30.15 "HgN/A
5:50 PM88 °FPartly sunny.6 mph35%30.15 "HgN/A
5:20 PM84 °FPartly sunny.2 mph40%30.15 "HgN/A
4:50 PM81 °FPartly sunny.3 mph48%30.15 "HgN/A
4:20 PM86 °FScattered showers. Cloudy.3 mph33%30.15 "HgN/A
3:50 PM90 °FPassing clouds.9 mph31%30.15 "HgN/A
3:20 PM90 °FPassing clouds.10 mph29%30.15 "HgN/A
2:50 PM88 °FPassing clouds.10 mph33%30.18 "HgN/A
2:20 PM88 °FPassing clouds.9 mph35%30.18 "HgN/A
1:50 PM86 °FPassing clouds.6 mph35%30.18 "HgN/A
1:20 PM86 °FPassing clouds.6 mph35%30.21 "HgN/A
12:50 PM84 °FPassing clouds.6 mph37%30.21 "HgN/A
12:20 PM84 °FPassing clouds.7 mph37%30.21 "HgN/A
11:50 AM82 °FPassing clouds.7 mph40%30.21 "HgN/A
11:20 AM82 °FPassing clouds.7 mph40%30.21 "HgN/A
10:50 AM81 °FPassing clouds.7 mph42%30.21 "HgN/A
10:20 AM81 °FPassing clouds.5 mph45%30.21 "HgN/A
9:50 AM79 °FPassing clouds.3 mph58%30.21 "HgN/A
9:20 AM77 °FPassing clouds.3 mph61%30.21 "HgN/A
8:50 AM77 °FPassing clouds.3 mph65%30.21 "HgN/A
8:20 AM75 °FSunny.2 mph69%30.21 "Hg10 mi
7:50 AM73 °FSunny.2 mph74%30.21 "Hg10 mi
7:20 AM73 °FSunny.1 mph69%30.21 "Hg10 mi
6:50 AM70 °FSunny.1 mph73%30.21 "Hg10 mi
6:20 AM68 °FSunny.1 mph83%30.21 "Hg10 mi
5:50 AM66 °FPartly sunny.No wind88%30.21 "Hg6 mi
5:20 AM64 °FMild.3 mph94%30.21 "HgN/A
4:50 AM66 °FMild.3 mph88%30.21 "HgN/A
4:20 AM66 °FPassing clouds.1 mph88%30.21 "HgN/A
3:50 AM66 °FPassing clouds.2 mph88%30.24 "HgN/A
3:20 AM68 °FPassing clouds.5 mph83%30.21 "HgN/A
2:50 AM66 °FPassing clouds.6 mph88%30.24 "HgN/A
2:20 AM68 °FPassing clouds.6 mph83%30.24 "HgN/A
1:50 AM68 °FPassing clouds.3 mph78%30.24 "HgN/A
1:20 AM68 °FPassing clouds.5 mph73%30.24 "HgN/A
12:50 AM68 °FMild.3 mph69%30.24 "HgN/A
12:20 AM68 °FMild.2 mph73%30.24 "HgN/A
11:50 PM
Jul 23
70 °FMild.3 mph69%30.24 "HgN/A
11:20 PM72 °FMild.2 mph65%30.21 "HgN/A
10:50 PM75 °FSunny.6 mph65%30.21 "Hg10 mi
10:20 PM77 °FSunny.6 mph57%30.21 "Hg10 mi
9:50 PM79 °FSunny.6 mph54%30.21 "Hg10 mi
Weather by CustomWeather, © 2014

See weather overviewHow to use our weather pages